Reflectivity
-20 -20 -20 -20 -20 -20 -20 -20 -17 -20 -20 -20 -20 -20 -20 -20 -20 -20 -20 -20 -20 -20 -20 -20 -20 -20 -20 -20 -20 -20 -8 -20 -19 -20 -20 -20 -20 -20 -20 -20 -20 -20 -20 -20
-20 -20 -20 -4 -20 -20 -20 -20 -20 -20 -20 -20 -20 -20 -20 -20 -20 -20 -20 -20 -20 -20 -20 -20 -20 -20 -20 -20 -20 -20 -20 -20 -20 -20 -20 -20 -20 -20 -20 -20 -20 -20 -20 -20
-20 -20 -20 -18 -20 -20 -20 -20 -20 -20 -20 -20 -20 -20 -20 -20 -19 -14 -20 -13 11 -20 -20 -20 -20 -20 -19 -20 -20 -20 -20 -20 -20 -20 -20 -20 -20 -20 -20 -20 -20 -20 -20 -20
-20 -9 6 -20 -20 -20 -20 -20 -20 -20 -20 -20 -20 -20 5 -20 -20 -19 -4 29 -10 -20 -20 -20 -20 -20 1 -7 -4 -20 -20 -20 -20 -20 -20 -20 -20 -20 -20 -20 -20 -20 -20 -20
3 -20 -20 -20 -20 -20 -20 -20 -20 -20 -20 -20 -5 2 -20 -20 -5 -15 27 19 -20 -20 -20 -20 -0 18 9 4 -17 -20 -20 -20 -20 -20 -20 -20 -20 -20 -20 -20 -20 -20 -20 -20
9 2 -20 -20 -20 -20 -20 -18 11 0 9 25 26 24 9 -20 -15 33 17 -20 -20 -5 6 20 20 1 0 -18 -20 -20 -20 -20 -20 -20 -20 -20 -20 -20 -20 -20 -20 -20 -20 -12
-20 -3 1 -20 -20 -20 -15 3 -20 16 14 14 18 14 17 -20 19 -5 -20 -20 -2 -8 -19 3 -12 -10 -9 -20 -20 -20 -20 -20 -20 -20 -20 -20 -20 -20 -20 -20 -14 4 7 6
12 11 3 -20 -20 -2 -3 -6 -20 -15 14 12 -9 27 -14 7 24 -9 -20 -14 -10 -20 -20 -17 -20 -20 -20 -20 -20 -20 -20 -20 -20 -20 -20 -20 -20 -20 -20 -16 -1 5 7 7
-3 -18 -20 -20 -11 23 -20 22 19 22 -12 -20 31 15 15 28 3 3 -16 -10 -20 -20 -20 -20 -20 -20 -20 -20 -20 -20 -20 -20 -20 -20 -20 -20 -20 -20 -20 -20 0 1 9 10
-16 -20 -20 2 4 -13 23 10 17 20 24 27 14 25 30 5 10 -20 14 10 5 -20 -20 -20 -20 -20 -20 -20 -20 -20 -20 -20 -20 -20 -20 -20 -20 -20 -20 -3 2 2 7 14
23 5 -20 17 4 19 18 18 20 8 12 32 24 -6 3 -11 -20 3 19 8 -12 -20 -20 -20 -20 -20 -20 -20 -20 -20 -20 -20 -20 -20 -20 -20 -20 -13 -18 -1 3 10 9 10
10 -16 21 -3 11 -20 15 18 17 13 -5 -20 1 5 -20 -20 -15 14 10 -19 -20 -20 -20 -20 -20 -20 -20 -20 -20 -20 -20 -20 -20 -20 -20 -20 -20 -19 -20 -20 -20 -20 -16 10
13 5 7 -19 -20 10 19 17 17 17 9 5 -19 -20 -20 -20 -20 -3 -20 -20 -20 -20 -20 -20 -20 -20 -20 -20 -20 -20 -20 -20 -20 -20 -20 -20 -3 2 1 -20 -20 -2 -16 -2
-12 19 -3 -20 7 -6 -7 -20 -20 -20 -20 -20 -20 -20 -6 -20 -20 -20 -20 -20 -20 -20 -20 -20 -20 -20 -20 -20 -20 -20 -20 -20 -20 -20 -20 0 1 -1 1 1 4 -0 -16 -5
-20 16 4 -18 -20 -20 -20 -20 -20 -20 -20 -20 -20 -10 -0 -14 -20 -20 -20 -20 -20 -20 -20 -20 -20 -20 -20 -20 -20 -20 -20 -20 -20 -20 -3 2 2 -2 0 2 2 1 -4 -13
-20 -20 -12 -20 -20 -20 -20 -20 -20 -20 -20 -20 -20 -20 -20 -20 -20 -20 -20 -20 -20 -20 -20 -20 -20 -20 -20 -20 -20 -20 -20 -20 -20 -20 -2 1 3 1 1 3 1 2 1 -2
-2 -20 -20 -20 -20 -20 -20 -20 -10 -17 2 -7 -20 -20 -20 -20 -20 -20 -20 -20 -20 -20 -20 -20 -20 -20 -20 -20 -20 -20 -20 -20 -20 -20 -6 1 2 2 2 3 3 1 3 0
-20 -20 -20 -20 -20 -20 -20 -20 -14 -3 -12 -16 -16 -20 -20 -20 -20 -20 -20 -20 -20 -20 -20 -20 -20 -20 -20 -20 -20 -20 -20 -20 -20 -20 -5 2 2 3 3 3 2 1 0 -2
-20 -20 -20 -20 -20 -20 -20 -20 -20 -20 -20 -20 -20 -20 -20 -20 -20 -20 -20 -20 -20 -20 -20 -20 -20 -20 -20 -20 -20 -20 -20 -9 -16 -20 -2 -15 4 4 2 5 2 2 0 -2
-20 -20 -20 -20 -20 -20 -20 -20 -20 -20 -20 -20 -20 -20 -20 -20 -20 -20 -20 -20 -20 -20 -20 -20 -20 -20 -20 -20 -20 -20 -20 -3 -13 -18 -2 2 4 4 4 1 3 2 1 -0
-20 -20 -20 -20 -20 -20 -20 -20 -20 -20 -20 -20 -20 -20 -20 -20 -20 -20 -20 -20 -20 -20 -20 -20 -20 -20 -20 -20 -20 -18 -3 -1 -2 -7 -2 3 3 4 4 3 3 2 2 1
-20 -20 -20 -20 -20 -20 -20 -20 -20 -20 -20 -20 -20 -20 -20 -20 -20 -20 -20 -20 -20 -20 -20 -16 -20 -20 -20 -20 -20 -5 -20 -18 -1 -2 -1 1 3 3 4 4 4 3 1 0
-20 -20 -20 2 -18 -20 -20 -20 -20 -20 -20 -20 -20 -20 -20 -20 -20 -20 -12 -15 -15 -3 -16 -12 -14 -20 -20 -17 -2 -20 -3 -18 -0 -3 -1 0 1 2 2 3 4 4 3 1
-20 -20 8 13 4 -19 -20 -20 -20 -20 -20 -20 -20 -20 -10 -20 -3 -20 -20 9 9 5 -4 5 -19 -19 -20 -4 -4 -20 -4 -0 -0 2 1 -18 2 2 2 2 3 5 3 2
-20 12 -8 -7 -13 -2 -20 -20 -20 -20 -20 -20 -20 -20 -20 -20 -14 -20 -5 -13 10 1 3 -20 -20 -20 -20 -4 -3 -20 -3 -1 1 2 2 2 -2 1 3 2 2 3 -1 -6
11 12 11 3 -6 -20 -20 -20 -20 -20 -20 -20 -17 5 2 -14 -18 -14 -20 1 -20 -3 -20 -14 -20 -20 -20 -14 -20 -20 -11 -6 -20 -13 1 0 -2 -1 -1 0 -1 -1 -2 -20
6 13 10 -6 -20 -20 -20 -20 -20 -20 -11 -20 -20 7 0 -18 7 1 6 -20 -17 -5 6 -20 -20 -20 -16 -16 -20 -20 -20 -15 -17 -1 1 1 1 1 1 -1 -1 -20 -20 -20
Wind_Speed
21 20 18 22 29 30 25 27 19 37 31 32 31 30 28 25 20 18 18 23 23 21 17 10 10 9 8 6 5 7 7 9 7 5 7 9 11 13 14 14 15 16 17 18
14 21 20 23 30 32 28 30 32 33 36 32 29 23 21 20 21 18 23 26 23 21 18 11 11 10 5 5 5 8 9 8 5 6 9 11 12 14 15 16 16 17 18 18
7 7 5 11 26 23 17 15 17 22 26 24 23 22 16 17 18 23 26 16 22 21 15 8 9 6 6 6 7 8 7 5 5 7 10 12 13 15 16 17 18 18 18 18
7 4 8 3 17 19 19 19 22 21 22 23 20 17 17 24 25 18 10 13 18 14 8 7 9 9 7 5 7 7 5 4 6 9 11 13 14 15 16 16 17 17 18 19
6 9 21 13 7 7 11 14 16 16 14 18 22 25 21 22 5 8 7 15 13 9 11 10 9 11 7 9 7 5 4 5 7 10 12 14 15 15 16 16 16 17 17 19
4 11 17 12 24 5 5 14 9 7 18 20 17 15 17 22 6 7 14 15 8 8 10 10 9 7 7 8 6 4 3 6 7 10 12 14 15 16 16 16 17 14 18 19
12 12 13 13 3 1 4 10 9 20 23 25 22 19 25 10 12 18 18 13 4 6 8 8 6 5 7 6 4 2 4 6 8 10 12 13 14 14 16 15 15 15 16 15
5 9 12 4 3 5 15 24 28 28 28 26 20 18 11 8 17 17 13 1 4 6 6 5 6 6 7 4 3 1 5 7 9 10 10 10 14 14 15 15 13 14 15 14
14 10 14 11 16 18 24 25 28 24 24 18 18 23 6 13 19 11 4 5 5 5 7 7 4 4 4 3 1 4 6 8 9 11 11 11 13 13 13 14 12 12 11 13
14 13 26 20 21 25 28 24 23 23 15 14 13 8 15 16 12 3 3 5 3 7 8 5 3 3 3 2 2 6 7 8 9 10 11 11 10 10 11 11 11 11 12 12
18 22 29 23 23 23 26 25 24 18 14 14 6 14 14 13 4 2 4 4 5 7 6 3 4 4 3 0 3 6 6 7 9 8 10 11 10 10 11 11 11 12 12 12
19 26 24 28 25 28 30 26 23 17 15 9 11 12 11 6 2 3 4 6 8 6 2 3 3 3 2 1 4 6 6 6 7 7 8 9 10 11 11 12 17 19 19 15
21 23 27 30 31 30 24 24 24 20 16 15 7 6 2 3 3 4 6 7 6 2 2 2 2 2 1 3 1 3 5 6 7 7 8 9 9 11 12 12 16 15 16 20
23 23 25 25 20 24 25 23 20 17 8 4 3 2 2 3 3 5 6 4 2 2 1 0 2 2 1 2 1 3 5 6 6 7 8 8 9 9 10 11 12 12 14 17
21 17 17 20 22 18 17 18 19 16 6 4 3 2 2 5 7 6 3 4 3 3 2 2 3 2 2 0 3 4 5 5 6 6 7 8 8 8 9 10 10 10 10 12
19 18 17 13 17 17 18 19 16 11 3 3 2 3 5 6 2 3 4 3 2 2 3 3 3 3 2 3 4 4 4 1 6 6 6 7 7 8 8 9 9 9 9 11
10 10 12 15 16 17 14 10 7 4 3 4 5 3 2 1 2 1 2 2 2 1 1 2 4 1 2 3 4 4 4 4 5 6 6 6 6 6 7 7 8 8 8 11
7 10 10 12 12 8 5 5 4 4 4 4 2 1 0 1 2 1 1 1 3 2 1 1 0 2 3 2 4 4 3 4 4 5 5 5 6 5 6 6 7 8 8 9
9 10 9 5 4 4 3 3 3 3 3 3 3 2 2 1 2 1 2 3 3 4 2 2 4 4 3 1 4 2 3 4 4 4 5 4 4 5 5 6 6 7 8 8
12 10 7 5 3 3 4 3 2 1 3 3 2 3 3 0 2 3 3 5 5 4 2 4 5 5 4 3 3 2 2 2 3 3 3 4 4 4 4 6 6 6 7 7
10 7 4 3 3 2 1 1 1 1 2 3 4 3 4 3 3 4 5 5 1 3 3 4 5 3 4 3 4 1 1 2 1 2 3 3 3 3 3 4 5 6 6 6
8 5 5 4 4 3 2 1 1 1 1 2 2 3 4 4 5 6 6 7 3 2 5 4 4 4 3 5 2 2 2 1 0 1 2 2 3 2 3 3 4 5 5 6
8 6 5 4 5 4 3 1 1 1 2 3 3 4 3 3 3 4 6 2 4 5 6 6 4 7 7 4 3 3 3 3 1 0 0 1 2 2 3 3 3 4 4 5
8 4 4 3 3 4 3 3 1 1 1 1 2 3 4 4 4 2 4 7 8 7 6 5 5 9 8 3 3 3 3 3 3 2 1 2 0 0 2 3 3 3 4 4
6 4 5 6 6 4 3 4 3 1 2 3 4 3 2 2 3 5 5 6 8 7 5 2 5 8 5 4 3 4 3 3 3 3 3 2 1 1 2 2 2 3 3 4
6 6 5 7 3 2 3 4 2 2 2 2 2 1 3 4 4 5 4 5 6 6 4 1 3 5 4 4 4 4 3 3 4 4 3 3 3 2 2 2 3 2 3 3
5 5 5 4 3 2 3 3 3 2 1 2 3 3 4 5 4 5 4 5 5 4 3 2 3 5 4 4 4 4 4 3 4 4 4 4 3 3 3 3 3 3 3 2
Wind_Direction
265 278 284 277 275 269 261 256 252 271 274 281 290 301 314 313 316 320 317 323 315 315 312 276 226 193 195 197 182 209 216 225 235 256 287 298 299 300 296 293 290 289 288 287
269 279 270 270 268 270 263 261 260 262 272 273 286 299 313 316 317 322 309 311 323 313 308 264 219 200 206 213 251 240 229 236 264 288 302 305 306 302 298 297 296 295 293 291
250 300 329 267 253 259 256 246 254 261 267 290 303 317 337 317 313 298 304 329 317 311 303 248 219 252 247 283 267 226 233 248 290 306 306 310 307 303 302 302 300 298 297 297
279 283 225 277 298 278 278 284 278 274 280 290 311 336 327 303 299 305 298 307 298 308 288 228 257 282 301 283 241 220 231 283 308 312 310 311 306 304 305 303 302 302 302 300
262 251 283 276 294 316 301 289 291 293 321 333 320 306 292 291 304 267 269 280 279 284 273 268 288 299 271 271 235 211 250 305 318 316 312 308 306 309 306 304 303 304 303 303
261 277 292 349 315 352 282 287 65 2 325 303 290 292 302 320 2 301 273 291 259 256 267 285 260 246 262 265 225 240 317 319 315 312 307 308 309 310 307 305 306 311 304 300
244 260 264 281 17 197 275 321 308 312 313 311 306 302 315 0 327 303 299 298 290 284 273 247 286 268 258 234 241 28 321 312 313 312 310 312 307 308 310 313 312 300 299 297
230 240 281 327 163 240 314 315 310 312 309 303 308 308 306 313 306 303 308 237 253 251 251 280 295 261 255 235 79 351 310 313 314 316 314 307 311 312 316 310 306 308 305 303
235 247 287 285 283 295 293 298 303 306 310 316 310 307 330 306 300 313 256 245 228 255 290 303 289 232 239 91 358 309 312 315 317 318 310 315 316 315 311 318 315 310 307 307
272 246 271 280 294 287 294 295 303 302 311 306 307 334 289 291 310 237 216 252 253 294 302 300 194 152 99 127 305 308 316 323 320 315 326 314 318 314 316 319 316 315 313 313
271 280 285 273 284 302 303 304 309 314 309 305 269 286 284 307 306 223 273 293 302 303 301 253 146 136 127 130 309 313 323 317 312 319 318 318 315 320 312 312 319 313 317 320
267 282 287 294 302 306 307 313 314 309 303 250 285 287 322 319 221 243 293 299 306 305 244 145 148 158 195 292 311 323 313 315 327 315 320 316 320 317 310 312 310 315 322 329
276 286 294 297 299 307 314 311 305 313 294 298 313 320 260 270 223 245 276 297 305 305 139 145 185 235 269 36 28 315 309 311 318 312 319 323 323 322 323 327 325 325 338 341
284 290 293 299 308 314 309 311 313 310 325 313 292 234 259 261 268 281 306 348 22 101 121 233 282 302 273 199 197 292 293 293 302 320 320 324 326 323 326 328 332 337 347 347
300 306 305 309 303 308 319 318 314 308 314 278 278 249 263 286 300 328 48 53 68 84 50 348 329 294 291 212 273 296 301 324 326 318 317 318 317 331 331 333 340 342 344 352
315 307 308 308 310 314 319 315 310 314 293 307 321 302 291 307 333 93 75 34 323 37 24 352 304 282 280 244 279 273 289 343 314 318 319 329 330 340 339 342 349 354 357 358
296 309 318 313 319 320 329 342 359 5 340 344 301 300 306 79 104 91 63 51 34 15 324 296 324 296 240 253 291 315 324 336 328 306 331 335 334 344 344 348 357 2 3 9
302 296 298 300 304 315 320 316 330 344 316 336 22 61 127 251 334 147 184 300 292 294 270 5 5 171 225 283 314 324 325 327 327 327 325 343 343 349 349 354 5 9 7 11
309 293 291 270 259 297 298 281 306 320 353 6 339 344 344 312 312 329 288 293 310 300 127 198 192 209 227 200 280 289 318 325 322 332 329 337 346 359 5 2 12 18 18 19
304 290 279 257 319 296 269 285 319 354 8 347 320 292 289 267 327 303 307 300 293 298 221 251 228 222 196 188 254 273 306 316 315 333 358 343 355 7 10 28 19 26 29 30
290 277 237 246 266 282 332 332 327 360 348 318 309 332 331 332 320 314 288 292 91 211 229 238 233 215 211 213 233 249 270 281 307 342 347 353 360 7 21 29 37 34 35 36
278 242 226 228 230 220 207 197 35 293 307 318 340 339 334 331 337 315 281 263 323 304 280 270 251 215 203 191 231 226 229 222 230 309 353 353 4 18 32 32 42 47 47 42
252 234 229 212 214 206 164 135 44 6 9 8 360 352 336 317 309 316 324 94 298 291 284 267 224 178 177 212 215 216 211 210 204 168 349 2 18 26 38 39 51 59 57 52
246 222 237 221 211 210 205 166 140 32 350 331 284 273 306 327 329 300 277 289 287 286 296 288 185 178 186 206 216 215 217 214 200 192 176 293 72 93 64 70 75 77 78 62
214 196 202 196 218 227 169 147 156 186 284 290 287 272 278 298 284 313 307 313 324 327 322 65 176 179 202 210 215 210 214 213 204 193 204 197 196 163 131 105 99 86 78 63
186 181 205 215 233 198 169 165 204 191 264 276 270 327 319 294 275 277 304 316 322 326 329 164 196 199 208 208 211 202 209 191 193 204 199 189 178 186 163 135 133 113 107 95
173 177 206 204 188 172 168 172 188 205 213 273 297 308 325 323 317 299 328 326 324 313 324 296 228 214 215 201 201 191 199 197 210 192 195 189 190 172 173 169 152 136 136 146